Temperature
16 15 15 15 15 15 15 15 15 15 15 15 15 15 15 15 15 15 15 15 15 15 15 15 15 15 15 15 15 15 15 15 15 15 15 15 15 16 16 16 16 16 16
15 15 15 15 15 15 15 15 15 15 15 15 15 15 15 15 15 15 15 15 15 15 15 15 15 15 15 15 15 15 15 15 15 15 15 15 15 15 15 15 16 16 16
15 15 15 15 15 15 15 15 15 15 15 15 15 15 15 15 15 15 15 15 15 15 15 15 15 15 15 15 15 15 15 15 15 15 15 15 15 15 15 15 15 15 15
15 15 15 15 15 15 15 15 15 15 15 15 15 14 14 14 14 14 14 14 15 14 14 14 14 14 14 14 14 14 14 15 15 15 15 15 15 15 15 15 15 15 15
15 15 15 15 15 15 15 15 15 15 15 15 14 14 14 14 14 14 14 14 14 14 14 14 14 14 14 14 14 14 14 14 15 15 15 15 15 15 15 15 15 15 15
15 15 15 15 15 15 15 15 15 15 15 15 14 14 14 14 14 14 14 14 14 14 14 14 14 14 14 14 14 14 14 14 14 14 14 15 14 14 14 15 15 15 15
15 15 15 15 15 15 15 15 15 15 15 15 14 14 14 14 14 14 14 14 14 14 14 14 14 14 14 14 14 14 14 14 14 14 14 14 14 14 14 14 14 15 15
15 15 15 15 15 15 15 15 15 15 14 14 14 14 14 14 14 14 14 14 14 14 14 14 14 14 14 14 14 14 14 14 14 14 14 14 14 14 14 14 14 14 14
15 15 15 15 15 15 15 15 15 15 15 14 14 14 14 14 14 13 14 13 13 13 14 14 14 14 14 14 14 14 14 14 14 14 14 14 14 14 14 14 14 14 14
15 15 15 15 15 15 15 15 15 15 15 14 14 14 14 14 14 13 13 13 13 13 13 13 14 14 13 13 14 14 14 14 14 14 14 14 14 14 14 14 13 13 13
15 15 15 15 15 15 14 14 14 14 14 14 15 15 15 14 14 14 13 13 13 13 13 13 13 13 13 13 13 13 14 14 14 14 14 13 13 13 13 13 13 13 13
15 15 15 15 15 15 14 14 14 14 14 14 15 15 15 15 14 14 14 13 13 13 13 13 13 13 13 13 13 13 13 13 13 13 13 13 13 13 13 13 13 13 13
15 15 15 15 15 15 15 14 14 14 14 14 15 15 15 15 15 15 14 14 13 13 13 13 13 13 13 13 13 13 13 13 13 13 13 13 13 13 13 13 13 13 13
15 15 15 15 15 15 15 15 15 15 15 15 15 15 15 15 14 14 14 14 14 13 13 13 13 13 13 13 13 13 13 13 13 13 13 13 13 13 13 12 12 12 12
15 15 15 15 15 15 15 15 15 15 15 15 15 15 15 15 14 14 14 14 14 14 13 13 13 13 13 13 13 13 13 13 13 13 13 12 12 12 12 12 12 12 12
15 15 15 15 15 15 15 15 15 15 15 15 15 15 14 14 14 14 14 14 14 14 13 13 13 13 13 13 13 13 13 12 12 12 12 12 12 12 12 12 12 12 12
15 15 15 15 15 15 15 15 15 15 15 15 14 14 14 14 14 14 14 14 14 14 14 13 13 13 13 13 13 13 12 12 12 12 12 12 12 12 12 12 12 12 12
15 15 15 15 15 15 15 15 15 15 15 15 14 14 14 14 14 14 14 14 14 14 14 13 13 13 13 12 12 12 12 12 12 12 12 12 12 12 12 12 11 11 11
15 15 15 15 15 15 15 15 15 15 15 14 14 14 14 14 14 14 14 14 14 14 13 13 13 13 13 12 12 12 12 12 12 11 11 11 11 11 11 11 11 11 11
15 15 15 15 15 15 15 15 15 15 15 14 14 14 14 14 14 14 14 14 13 13 13 13 13 13 12 12 12 12 12 12 11 11 11 11 11 11 11 11 10 10 10
15 15 15 15 15 15 15 15 15 14 14 14 14 14 14 14 14 14 14 13 13 13 13 13 13 12 12 12 12 12 12 11 11 11 11 10 10 10 10 10 10 10 10
15 15 15 15 15 15 15 15 14 14 14 14 14 14 14 14 14 13 13 13 13 13 13 13 12 12 12 12 11 11 11 11 11 11 10 10 10 10 10 9 9 9 9
15 15 15 15 15 15 14 14 14 14 14 14 14 14 14 13 13 13 13 13 13 13 12 12 12 12 12 12 11 11 11 11 11 10 10 10 10 9 9 9 9 9 9
15 15 15 15 15 15 14 14 14 14 14 14 14 14 14 13 13 13 13 13 12 12 12 12 12 12 11 11 11 11 11 10 10 10 10 10 9 9 8 8 8 8 8
15 15 15 15 15 14 14 14 14 14 14 14 14 14 13 13 13 13 13 13 12 12 12 12 11 11 11 11 11 11 10 10 10 10 9 9 9 9 8 8 8 8 7
15 15 15 14 14 14 14 14 14 14 14 14 14 13 13 13 13 13 12 12 12 12 12 11 11 11 11 11 10 10 10 10 10 9 9 9 8 8 8 8 7 7 7
Wind_Speed
2 3 3 4 5 6 6 6 6 7 7 8 9 9 8 9 9 10 11 14 14 14 14 14 14 14 13 13 13 13 13 13 13 13 12 13 13 13 12 12 12 11 9
4 3 3 3 4 6 6 6 6 5 5 6 7 8 8 8 9 10 11 13 15 15 15 15 15 14 14 14 15 14 14 13 13 13 13 13 14 14 14 13 13 13 12
5 4 3 3 3 6 7 7 7 6 5 6 6 6 7 8 9 10 10 11 12 14 15 15 15 15 15 15 15 15 15 14 13 13 14 14 14 14 14 14 14 13 13
7 5 3 2 4 6 6 4 4 5 5 5 5 5 5 6 8 9 10 11 11 11 13 15 16 16 15 15 16 16 16 15 14 14 14 15 15 16 15 14 14 14 14
6 6 4 3 5 5 4 4 4 4 5 5 5 5 5 5 5 8 8 9 10 11 12 12 14 16 16 16 17 17 17 17 15 15 15 16 16 16 17 16 15 14 14
6 6 4 4 5 4 4 4 5 5 4 4 5 6 5 5 5 6 6 8 10 11 11 12 12 12 15 16 17 17 18 18 18 18 17 17 17 17 18 17 16 16 16
5 5 4 4 3 4 4 5 4 5 4 3 4 4 4 5 5 5 6 6 8 9 10 11 11 11 12 15 16 17 18 18 18 19 19 19 19 19 19 20 18 18 18
4 5 5 3 3 4 4 4 4 3 2 2 3 3 3 4 4 5 5 5 6 8 8 10 11 11 11 12 14 16 17 17 18 18 19 19 19 20 19 20 20 19 19
4 5 5 5 4 3 4 3 4 4 2 1 2 3 3 1 1 3 4 5 5 5 6 8 10 11 11 11 12 15 17 17 18 18 19 19 19 20 20 20 20 19 19
4 4 5 5 4 3 3 3 3 3 3 2 1 2 2 3 2 1 3 4 5 5 6 6 8 10 11 11 12 15 16 16 17 17 18 19 20 20 20 20 20 20 19
3 3 4 5 4 3 3 3 3 3 2 3 2 2 2 3 3 3 1 3 3 4 4 5 6 8 10 10 10 13 14 15 16 17 17 18 18 19 20 19 19 19 20
1 2 4 4 3 3 3 3 3 3 2 3 2 2 2 2 2 3 2 1 1 3 3 4 5 6 8 9 9 12 13 14 14 16 16 17 17 18 18 19 19 19 19
1 1 2 3 2 3 3 3 3 2 2 3 2 2 2 2 3 3 4 2 1 2 3 3 4 6 7 8 9 10 11 12 13 14 15 15 16 16 17 17 17 18 18
2 2 3 3 3 3 3 3 2 2 2 3 3 3 2 2 3 3 3 4 2 2 3 3 3 5 7 7 8 9 9 11 11 12 13 14 15 15 15 16 16 16 16
2 3 3 3 3 3 4 4 3 3 3 3 3 3 2 2 2 2 3 3 4 2 1 2 2 4 6 6 8 8 8 10 10 11 12 13 14 14 15 15 15 15 16
3 4 3 3 3 3 4 4 3 3 4 3 2 4 3 2 2 2 2 2 3 4 2 1 1 2 4 5 8 8 8 10 11 11 12 13 13 13 14 14 14 14 15
3 4 4 4 4 4 4 4 3 3 4 3 3 4 3 3 3 3 3 3 3 3 4 1 1 2 4 4 6 8 9 9 10 12 12 12 13 13 13 13 14 14 14
3 4 4 4 4 4 4 4 4 3 3 3 3 4 3 3 4 3 3 3 2 2 4 3 2 3 3 3 3 4 7 8 9 11 12 12 12 12 13 13 13 13 14
4 4 4 5 4 4 4 4 4 3 3 3 3 4 3 4 3 3 3 3 3 3 3 3 2 2 2 2 3 3 5 6 7 9 10 11 12 12 12 12 12 13 13
5 4 4 4 4 4 4 4 4 4 3 3 2 3 3 4 4 4 4 3 4 5 4 4 3 2 2 2 2 2 3 4 4 7 8 8 10 11 12 12 12 12 12
5 4 4 4 3 3 4 5 5 5 4 3 3 2 3 4 5 5 4 4 5 4 4 3 2 2 2 1 1 1 1 2 3 5 4 6 7 8 9 10 10 10 11
4 4 4 4 4 3 5 7 6 5 4 4 3 2 2 3 4 5 6 7 6 5 4 3 2 1 1 1 1 1 1 2 2 3 3 3 5 4 6 7 9 10 10
5 5 4 5 4 4 6 8 8 6 4 4 3 3 3 3 4 4 5 6 5 5 6 5 3 2 1 2 1 1 1 1 0 2 2 2 3 3 4 7 9 9 9
5 5 5 5 5 4 7 8 8 6 4 3 3 3 4 3 3 5 6 5 4 3 3 3 3 2 1 2 2 2 2 2 1 2 2 1 2 2 3 5 8 9 10
5 4 4 5 5 4 7 9 9 5 4 3 2 3 4 4 5 8 6 5 3 3 5 5 5 4 4 4 5 4 2 2 1 2 2 1 2 2 2 2 6 9 9
5 5 4 4 5 5 6 9 9 5 4 3 2 2 4 5 6 8 6 5 4 1 2 4 5 6 6 6 5 3 2 2 1 1 2 1 1 2 3 2 4 7 8
Wind_Direction
78 78 68 66 65 69 75 76 76 72 72 73 73 71 63 54 47 45 40 44 47 46 46 48 46 44 42 39 38 35 32 30 28 25 25 24 27 27 27 27 28 25 25
108 95 80 70 71 77 82 85 84 79 72 72 66 64 60 54 48 45 42 40 43 44 44 44 43 44 44 41 38 35 32 29 27 27 29 29 31 32 32 32 32 32 32
120 107 91 80 86 91 91 87 82 79 75 69 60 55 55 52 49 45 42 40 38 39 39 41 42 41 41 39 36 34 31 29 30 33 35 33 33 35 37 37 37 37 37
129 115 103 93 101 101 97 91 83 80 73 70 62 49 48 49 47 46 44 41 39 34 32 37 39 38 38 36 36 34 32 29 34 40 41 38 37 37 37 38 40 43 44
124 120 113 111 107 99 93 98 84 89 86 79 75 58 47 46 40 45 40 38 38 35 31 31 34 35 35 35 35 35 34 35 41 45 47 44 41 40 39 40 43 46 51
124 123 116 113 113 103 90 91 94 78 85 85 79 63 46 45 44 38 34 37 38 36 34 33 32 30 31 32 33 35 37 39 43 46 47 47 44 43 42 43 46 51 55
130 126 118 111 109 110 114 113 104 91 77 82 82 56 35 41 46 35 33 37 34 31 34 34 33 31 28 27 30 36 38 40 43 46 47 47 46 45 45 47 51 55 56
132 137 126 120 117 111 109 112 114 106 81 62 101 89 40 16 19 28 29 37 29 29 30 31 33 31 28 28 29 37 39 42 46 48 48 48 47 46 46 48 51 54 56
112 124 133 132 130 124 130 132 132 127 128 58 77 128 130 168 347 5 25 30 25 26 20 26 32 29 28 29 30 36 40 42 46 49 50 48 48 48 48 49 51 53 54
101 121 132 135 133 128 133 145 132 126 130 130 69 62 110 143 131 38 3 11 22 29 19 25 24 24 27 31 33 38 41 42 45 48 48 48 48 48 49 49 50 51 52
83 111 125 126 127 128 136 130 122 121 126 141 141 124 93 75 90 125 71 353 7 10 14 18 22 21 23 29 32 38 41 42 44 46 46 46 47 48 48 49 49 49 49
63 97 118 125 132 134 139 139 131 126 126 124 128 134 141 140 144 131 135 90 4 342 359 9 19 16 19 25 31 36 40 42 43 45 45 46 46 47 48 48 47 47 48
100 144 130 132 136 146 146 139 121 121 125 125 131 131 131 142 143 136 131 130 67 340 351 359 7 12 19 21 26 34 40 42 43 44 44 46 46 47 48 48 47 45 46
180 166 143 143 140 142 140 131 111 109 106 111 112 119 117 122 135 141 144 137 101 18 12 346 350 8 10 17 24 37 39 42 45 46 45 45 46 46 46 46 46 45 45
163 152 144 136 133 130 128 122 109 102 103 93 100 104 101 95 110 122 131 139 138 123 354 328 341 351 6 23 30 39 40 42 47 47 47 46 46 47 46 45 45 44 43
141 136 129 123 118 117 121 116 110 106 100 87 95 96 88 90 91 92 109 107 118 138 141 301 305 328 3 31 36 42 43 47 48 50 50 50 50 50 49 48 47 45 43
143 139 140 134 129 127 123 120 117 115 105 88 87 102 96 97 94 84 89 94 95 112 126 10 351 359 21 27 25 36 45 46 46 50 55 55 53 53 51 49 47 45 44
146 141 137 132 133 130 128 130 129 122 117 112 110 109 106 104 92 85 90 91 94 102 126 116 22 10 16 15 19 30 36 44 45 47 53 54 52 54 52 49 47 46 44
141 133 132 138 141 139 135 135 133 130 123 121 130 131 130 119 109 100 97 96 90 90 92 111 63 15 6 16 18 26 39 35 41 40 46 49 52 54 52 48 47 47 43
146 143 144 150 149 142 137 138 132 126 118 111 120 130 134 138 140 131 117 111 106 95 89 91 76 36 15 358 35 28 23 27 32 31 35 43 47 49 47 46 45 44 41
155 152 147 145 145 145 154 151 145 138 132 118 103 110 126 134 136 137 130 131 122 110 101 95 80 49 21 13 3 352 23 14 31 28 22 30 36 41 39 40 40 41 39
148 146 152 150 148 160 161 158 149 139 138 134 129 114 110 114 119 121 122 126 130 129 132 120 107 105 299 279 326 51 43 38 4 3 22 13 33 33 30 36 35 38 36
152 152 156 151 157 165 158 152 146 136 135 139 141 132 119 115 112 112 107 103 99 108 130 138 137 177 203 226 153 91 90 100 115 331 21 2 7 16 22 28 34 35 31
156 160 160 160 158 168 158 149 143 132 126 133 145 145 135 128 129 129 112 97 81 73 103 114 139 167 170 155 155 157 155 126 40 14 37 12 343 339 3 19 30 32 29
155 159 157 158 160 171 164 156 142 129 125 128 131 135 145 141 141 134 122 115 92 61 73 89 92 80 71 84 113 100 85 78 17 342 12 34 326 323 332 355 15 22 24
158 153 150 160 167 174 169 161 148 139 138 133 109 113 135 144 140 137 135 135 132 133 97 76 65 59 61 69 87 99 131 122 111 322 336 16 341 356 337 329 358 9 14
Height
1544 1544 1544 1545 1545 1545 1545 1546 1546 1546 1546 1546 1547 1547 1547 1547 1546 1546 1545 1544 1543 1542 1541 1540 1539 1537 1536 1534 1533 1531 1529 1527 1526 1524 1522 1520 1518 1516 1514 1512 1510 1508 1506
1545 1546 1546 1546 1546 1547 1547 1547 1547 1547 1548 1548 1548 1548 1548 1548 1548 1547 1546 1546 1545 1544 1542 1541 1540 1538 1536 1535 1533 1530 1529 1526 1524 1523 1521 1520 1518 1516 1514 1512 1510 1508 1506
1546 1547 1547 1548 1548 1548 1548 1549 1549 1549 1549 1550 1550 1550 1550 1550 1549 1549 1548 1547 1546 1545 1544 1542 1541 1539 1538 1536 1533 1531 1528 1524 1522 1521 1520 1519 1518 1516 1514 1512 1510 1508 1506
1547 1548 1549 1549 1549 1550 1550 1550 1551 1551 1551 1551 1551 1552 1552 1551 1550 1550 1549 1549 1548 1547 1545 1544 1542 1541 1539 1537 1534 1531 1527 1521 1518 1518 1519 1519 1518 1516 1514 1511 1509 1507 1506
1548 1549 1550 1550 1550 1551 1551 1552 1552 1552 1552 1553 1553 1553 1553 1553 1552 1552 1551 1550 1549 1548 1547 1545 1544 1542 1540 1538 1535 1532 1527 1521 1518 1518 1519 1519 1518 1517 1513 1510 1507 1506 1506
1549 1550 1550 1551 1552 1552 1552 1553 1553 1553 1554 1554 1554 1554 1554 1554 1554 1553 1553 1552 1551 1550 1549 1547 1545 1543 1541 1539 1536 1534 1530 1525 1522 1522 1522 1521 1520 1518 1514 1510 1508 1507 1507
1549 1550 1551 1552 1552 1553 1553 1554 1554 1554 1555 1555 1555 1555 1556 1556 1555 1555 1554 1554 1552 1551 1550 1549 1547 1545 1543 1541 1538 1536 1533 1530 1527 1526 1525 1524 1522 1520 1517 1514 1511 1510 1510
1550 1551 1551 1552 1553 1553 1554 1554 1555 1555 1555 1556 1556 1556 1557 1558 1557 1556 1556 1555 1554 1553 1552 1550 1549 1547 1545 1543 1540 1538 1536 1534 1532 1530 1529 1527 1526 1524 1521 1519 1517 1516 1515
1550 1551 1552 1552 1553 1554 1554 1555 1555 1556 1556 1556 1557 1557 1557 1557 1558 1558 1557 1557 1556 1555 1554 1552 1551 1549 1547 1545 1543 1541 1539 1537 1535 1534 1532 1531 1529 1527 1525 1524 1522 1521 1520
1550 1551 1552 1553 1553 1554 1555 1555 1556 1556 1556 1557 1557 1557 1558 1557 1558 1558 1559 1558 1557 1556 1555 1554 1553 1552 1550 1548 1546 1544 1543 1541 1539 1538 1536 1534 1533 1531 1529 1528 1526 1525 1524
1550 1551 1552 1553 1554 1554 1555 1555 1556 1556 1557 1557 1557 1557 1557 1558 1558 1558 1559 1559 1559 1558 1557 1556 1555 1554 1552 1551 1549 1547 1546 1545 1543 1541 1540 1538 1536 1535 1533 1531 1530 1529 1527
1550 1551 1552 1553 1554 1555 1555 1556 1556 1557 1557 1557 1557 1558 1558 1558 1558 1558 1558 1559 1559 1559 1558 1557 1556 1555 1554 1553 1552 1551 1549 1547 1546 1544 1543 1541 1540 1538 1537 1535 1533 1532 1531
1551 1552 1552 1553 1554 1555 1556 1556 1556 1557 1557 1557 1557 1558 1558 1558 1558 1559 1559 1559 1559 1560 1559 1559 1558 1557 1556 1555 1554 1553 1552 1550 1549 1547 1546 1544 1543 1541 1540 1538 1536 1535 1533
1551 1552 1553 1554 1554 1555 1556 1556 1557 1557 1557 1558 1558 1558 1558 1558 1559 1559 1560 1560 1560 1561 1560 1560 1560 1559 1558 1557 1556 1555 1554 1553 1551 1550 1548 1547 1545 1544 1542 1541 1539 1537 1536
1551 1552 1553 1554 1555 1555 1556 1557 1557 1557 1558 1558 1558 1558 1558 1559 1559 1560 1560 1561 1561 1560 1561 1561 1561 1560 1559 1559 1558 1557 1556 1555 1553 1552 1551 1549 1548 1546 1544 1543 1541 1539 1538
1551 1553 1553 1554 1555 1556 1556 1557 1557 1558 1558 1558 1558 1558 1559 1559 1560 1560 1560 1561 1561 1561 1561 1561 1561 1561 1560 1560 1559 1558 1557 1556 1555 1554 1552 1551 1549 1548 1546 1544 1543 1541 1539
1551 1552 1554 1555 1555 1556 1557 1557 1558 1558 1558 1558 1558 1559 1559 1559 1560 1560 1561 1561 1561 1561 1561 1562 1562 1561 1561 1560 1560 1559 1558 1557 1556 1555 1554 1552 1551 1549 1548 1546 1544 1542 1541
1551 1552 1553 1554 1555 1556 1557 1557 1558 1558 1558 1558 1559 1559 1559 1560 1560 1561 1561 1561 1561 1562 1562 1561 1562 1562 1561 1561 1560 1559 1559 1558 1557 1556 1554 1553 1552 1550 1549 1547 1545 1543 1542
1550 1552 1553 1554 1555 1556 1557 1557 1558 1558 1559 1559 1559 1559 1560 1560 1561 1561 1561 1561 1562 1562 1562 1562 1562 1562 1562 1561 1561 1560 1559 1558 1557 1556 1555 1554 1552 1551 1549 1548 1546 1544 1542
1549 1551 1552 1553 1555 1556 1556 1557 1558 1558 1559 1559 1559 1560 1560 1561 1561 1561 1562 1562 1562 1562 1562 1562 1562 1562 1562 1561 1561 1560 1559 1559 1558 1557 1556 1554 1553 1552 1550 1548 1546 1545 1543
1548 1550 1551 1553 1554 1555 1556 1557 1558 1558 1559 1559 1560 1560 1561 1561 1561 1562 1562 1562 1562 1562 1562 1562 1562 1562 1561 1561 1560 1560 1559 1559 1558 1557 1556 1554 1553 1551 1550 1548 1546 1544 1543
1547 1549 1550 1552 1553 1554 1556 1557 1557 1558 1558 1559 1560 1560 1561 1561 1562 1562 1562 1562 1563 1562 1562 1562 1562 1561 1561 1561 1560 1560 1559 1558 1557 1557 1556 1554 1553 1551 1549 1547 1546 1544 1542
1545 1547 1549 1551 1552 1553 1555 1556 1557 1557 1558 1559 1560 1560 1561 1561 1562 1562 1562 1562 1562 1562 1563 1563 1562 1561 1561 1561 1560 1559 1558 1557 1556 1556 1555 1553 1552 1550 1548 1547 1545 1543 1541
1544 1546 1548 1549 1551 1552 1554 1555 1556 1557 1557 1558 1559 1560 1560 1561 1561 1562 1562 1562 1562 1562 1562 1562 1562 1561 1561 1560 1559 1559 1558 1557 1556 1555 1554 1552 1550 1549 1548 1546 1544 1543 1541
1542 1544 1546 1548 1550 1551 1553 1554 1555 1555 1556 1557 1558 1559 1560 1560 1561 1561 1561 1561 1561 1561 1561 1561 1561 1560 1560 1559 1559 1558 1557 1556 1555 1554 1552 1551 1549 1548 1547 1545 1543 1541 1539
1540 1542 1545 1546 1548 1550 1551 1552 1553 1554 1555 1556 1557 1558 1559 1559 1560 1560 1560 1560 1560 1561 1561 1560 1560 1559 1559 1558 1557 1557 1556 1555 1553 1552 1551 1550 1548 1547 1545 1544 1542 1540 1538